Location: Riverview Farm Park
(37.0930°N, 76.5291°W)
Time: 21:54:32
(UTC-05:00)

Tiangong 1 - Visible Passes

Search period start: 20 February 2018 00:00
Search period end: 02 March 2018 00:00
Orbit: 248 x 270 km, 42.8° (Epoch: 20 February)

Date Brightness Start Highest point End Pass type
(mag) Time Alt. Az. Time Alt. Az. Time Alt. Az.
20 Feb 1.8 05:32:56 26° S 05:32:56 26° S 05:34:27 10° SE visible
21 Feb 3.0 05:27:39 12° S 05:27:39 12° S 05:28:01 10° SSE visible
27 Feb 3.0 19:12:41 10° S 19:13:00 12° S 19:13:00 12° S visible
28 Feb 1.7 19:04:10 10° SSW 19:05:55 25° SSE 19:05:55 25° SSE visible
01 Mar 0.7 18:55:39 10° SW 18:57:50 43° SSE 18:58:28 32° ESE visible
